AirNav   ProFlight Series 2 Aviation Headset
 
 895 users online  

0II1 Unsicker Airport
Bremen, Indiana, USA

GOING TO BREMEN?


FAA INFORMATION EFFECTIVE 08 OCTOBER 2020

Location

FAA Identifier: 0II1
Lat/Long: 41-25-41.1360N 086-09-11.9720W
41-25.685600N 086-09.199533W
41.4280933,-86.1533256
(estimated)
Elevation: 816 ft. / 249 m (estimated)
Variation: 02W (1985)
From city: 1 mile NW of BREMEN, IN
Time zone: UTC -4 (UTC -5 during Standard Time)
Zip code: 46902

Airport Operations

Airport use: Private use. Permission required prior to landing
Activation date: 07/1982
Control tower: no
ARTCC: CHICAGO CENTER
FSS: TERRE HAUTE FLIGHT SERVICE STATION
Attendance: UNATNDD
Wind indicator: yes
Segmented circle: no

Airport Communications

WX AWOS-3 at C65 (8 nm SW): 133.025 (574-935-3854)
WX AWOS-3 at ASW (17 nm SE): 121.125 (574-269-7035)
WX ASOS at GSH (17 nm E): 121.45 (574-642-4231)
WX ASOS at SBN (18 nm NW): PHONE 574-251-2652
WX AWOS-3 at EKM (19 nm N): 124.475 (574-264-9002)

Nearby radio navigation aids

VOR radial/distance  VOR name  Freq  Var
GSHr224/8.1GOSHEN VORTAC113.7000E
GIJr160/21.7GIPPER VORTAC115.4000E
OXIr074/23.2KNOX VOR/DME115.6000E
OLKr293/(31.5)WEBSTER LAKE VOR110.4003W

 
NDB name  Hdg/Dist  Freq  Var  ID
STURGIS238/39.738204WIRS .. .-. ...

Airport Services

Runway Information

Runway 9/27

Dimensions: 1300 x 60 ft. / 396 x 18 m
Surface: turf
RUNWAY 9  RUNWAY 27
Traffic pattern: leftleft
Obstructions: pline, markednone

Airport Ownership and Management from official FAA records

Ownership: Privately-owned
Owner: ROBERT UNSICKER
3310 FIR RD.
BREMEN, IN 46506-9703
Phone 574-546-2789
Manager: ROBERT UNSICKER
3310 FIR RD.
BREMEN, IN 46506-9703
Phone 574-546-2789

Airport Operational Statistics

Aircraft based on the field: 1
Single engine airplanes: 1
    

Additional Remarks

FOR CD CTC CHICAGO ARTCC AT 630-906-8921.

Instrument Procedures

There are no published instrument procedures at 0II1.

Some nearby airports with instrument procedures:

C65 - Plymouth Municipal Airport (8 nm SW)
C03 - Nappanee Municipal Airport (10 nm E)
KASW - Warsaw Municipal Airport (17 nm SE)
KGSH - Goshen Municipal Airport (17 nm E)
KSBN - South Bend International Airport (18 nm NW)
KEKM - Elkhart Municipal Airport (19 nm N)
 
Loc | Ops | Rwys | IFR | FBO | Links
Com | Nav | Svcs | Stats | Notes
Area around 0II1 (Unsicker Airport)
 
Road maps at: MapQuest Bing Google
 
Aerial photo
No photo
 
Sectional chart

 
Airport distance calculator
Flying to Unsicker Airport? Find the distance to fly.

From to 0II1

Sunrise and sunset
Times for 25-Oct-2020
 Local
(UTC-4)
 Zulu
(UTC)
Morning civil twilight07:4211:42
Sunrise08:1012:10
Sunset18:4722:47
Evening civil twilight19:1623:16

Current date and time
Zulu (UTC)  26-Oct-2020 02:48:27
Local (UTC-4)  25-Oct-2020 22:48:27
 
METAR
KC65 
8nm SW 
260235Z AUTO 04005KT 10SM SCT028 SCT034 OVC055 07/M00 A3011 RMK A01
KASW 
17nm SE 
260235Z AUTO 07004KT 10SM OVC023 07/02 A3011 RMK AO2
KGSH 
18nm E 
260153Z AUTO 04006KT 10SM OVC026 07/01 A3012 RMK AO2 SLP203 T00720006
KSBN 
18nm NW 
260154Z 04007KT 10SM OVC033 07/00 A3012 RMK AO2 SLP205 T00670000
KEKM 
19nm N 
252152Z 06007KT 10SM SKC 08/M01 A3011 RMK AO2 LAST
TAF
KSBN 
18nm NW 
251730Z 2518/2618 07008KT P6SM OVC090 FM260400 02006KT P6SM OVC025 FM261400 35009KT P6SM BKN015 OVC025
NOTAMs
Click for the latest NOTAMs
NOTAMs are issued by the DoD/FAA and will open in a separate window not controlled by AirNav.

 

 
 

Would you like to see your business listed on this page?

 If your business provides an interesting product or service to pilots, flight crews, aircraft, or users of the Unsicker Airport, you should consider listing it here.  To start the listing process, click on the button below
 
Add a business
 

Other Pages about Unsicker Airport

Update a link
 
Copyright © AirNav, LLC. All rights reserved. Privacy Policy  Contact